Date,TemperatureHighF,TemperatureAvgF,TemperatureLowF,DewpointHighF,DewpointAvgF,DewpointLowF,HumidityHigh,HumidityAvg,HumidityLow,PressureMaxIn,PressureMinIn,WindSpeedMaxMPH,WindSpeedAvgMPH,GustSpeedMaxMPH,PrecipitationSumIn
2013-1-1,54.1,45.0,38.8,39.0,32.6,28.0,87,64,41,30.24,30.18,9,1,0,0.00
2013-1-2,58.4,46.1,37.3,36.0,30.6,24.0,83,57,30,30.21,30.11,5,0,0,0.00
2013-1-3,59.5,45.6,36.6,41.0,35.8,31.0,88,70,49,30.24,30.13,2,0,0,0.00
2013-1-4,60.1,46.9,37.2,39.0,35.1,31.0,91,67,34,30.26,30.15,3,0,0,0.00
2013-1-5,53.9,47.4,40.3,48.0,43.1,37.0,95,85,70,30.23,30.04,4,0,0,0.37
2013-1-6,51.6,46.1,41.8,45.0,42.3,41.0,95,87,70,30.16,30.03,7,1,0,0.03
2013-1-7,60.4,48.0,39.9,47.0,43.3,39.0,97,85,56,30.24,30.13,3,0,0,0.00
2013-1-8,65.3,50.2,41.8,49.0,44.1,41.0,97,81,50,30.26,30.13,3,0,0,0.00
2013-1-9,52.9,46.4,39.2,49.0,41.7,34.0,95,84,64,30.14,29.99,4,0,0,0.00
2013-1-10,53.5,43.1,36.6,36.0,33.0,29.0,89,69,40,30.19,30.06,4,0,0,0.00
2013-1-11,53.9,43.9,38.0,39.0,33.4,29.0,91,68,46,30.25,30.12,1,0,0,0.00
2013-1-12,52.6,42.9,33.7,36.0,28.2,21.0,91,59,30,30.25,30.14,2,0,0,0.00
2013-1-13,53.9,41.5,31.2,30.0,22.0,12.0,66,47,31,30.26,30.18,4,0,0,0.00
2013-1-14,54.1,41.8,32.2,26.0,18.2,10.0,59,41,23,30.40,30.22,6,0,0,0.00
2013-1-15,56.9,43.5,34.4,29.0,26.0,21.0,77,53,26,30.47,30.39,4,0,0,0.00
2013-1-16,60.2,46.0,35.6,36.0,31.2,24.0,85,59,32,30.42,30.25,4,0,0,0.00
2013-1-17,65.5,51.3,39.6,38.0,30.1,22.0,84,49,21,30.26,30.14,8,1,0,0.00
2013-1-18,66.4,52.6,40.3,40.0,29.0,18.0,82,45,21,30.22,30.12,9,1,0,0.00
2013-1-19,65.6,51.8,37.6,36.0,28.8,18.0,87,46,20,30.23,30.14,5,1,0,0.00
2013-1-20,66.9,51.0,38.5,39.0,30.0,23.0,83,50,21,30.22,30.12,9,1,0,0.00
2013-1-21,67.9,50.5,38.9,38.0,32.7,25.0,77,53,28,30.17,30.07,4,0,0,0.00
2013-1-22,67.6,51.9,42.1,43.0,39.3,32.0,88,64,34,30.10,30.00,2,0,0,0.00
2013-1-23,54.8,51.6,48.9,52.0,46.8,41.0,96,84,70,30.08,29.94,6,0,0,0.18
2013-1-24,61.0,54.6,51.0,51.0,49.4,48.0,93,83,67,30.18,30.04,5,0,0,0.00
2013-1-25,68.9,57.0,50.5,54.0,51.1,49.0,96,82,55,30.18,30.04,4,0,0,0.00
2013-1-26,61.2,51.9,42.9,51.0,42.7,36.0,96,74,40,30.07,29.99,3,0,0,0.00
2013-1-27,58.4,47.0,39.5,39.0,35.9,30.0,88,68,34,30.17,30.06,3,0,0,0.00
2013-1-28,61.0,48.4,40.2,42.0,37.7,34.0,88,68,40,30.28,30.16,4,0,0,0.00
2013-1-29,60.4,49.3,40.8,43.0,39.5,37.0,87,71,43,30.36,30.27,4,0,0,0.00
2013-1-30,66.1,51.4,42.3,46.0,42.2,39.0,92,73,39,30.34,30.26,0,0,0,0.00
2013-1-31,68.4,53.3,41.9,46.0,42.8,40.0,93,70,43,30.28,30.17,3,0,0,0.00
2013-2-1,68.8,54.0,44.1,47.0,43.6,41.0,92,71,41,30.22,30.11,5,0,0,0.00
2013-2-2,60.1,51.0,44.9,48.0,46.5,43.0,94,85,62,30.29,30.20,3,0,0,0.00
2013-2-3,59.3,49.3,41.8,45.0,42.6,40.0,94,79,53,30.25,30.14,4,0,0,0.00
2013-2-4,58.4,49.0,42.6,48.0,45.8,41.0,96,89,67,30.17,30.07,3,0,0,0.00
2013-2-5,60.9,50.4,43.1,48.0,43.4,40.0,91,77,57,30.15,30.06,4,0,0,0.00
2013-2-6,59.6,48.6,40.9,44.0,40.3,38.0,91,75,48,30.20,30.12,4,0,0,0.00
2013-2-7,57.2,48.9,42.9,46.0,41.6,37.0,92,77,54,30.17,30.00,4,0,0,0.08
2013-2-8,56.3,46.9,40.2,43.0,38.9,33.0,94,75,51,30.02,29.93,4,0,0,0.02
2013-2-9,62.0,48.2,37.6,34.0,30.5,22.0,78,54,24,30.09,29.98,2,0,0,0.00
2013-2-10,61.6,47.5,37.6,40.0,35.4,31.0,86,65,35,30.11,30.03,3,0,0,0.00
2013-2-11,66.6,51.2,40.9,45.0,33.6,24.0,93,56,22,30.23,30.06,3,0,0,0.00
2013-2-12,62.9,49.9,41.6,46.0,42.3,37.0,95,78,43,30.35,30.23,3,0,0,0.00
2013-2-13,60.7,48.9,41.9,48.0,43.5,39.0,96,83,50,30.34,30.23,2,0,0,0.00
2013-2-14,70.1,54.0,43.1,49.0,44.3,42.0,97,73,37,30.24,30.16,2,0,0,0.00
2013-2-15,74.2,61.7,47.9,43.0,36.5,30.0,80,41,26,30.26,30.18,12,1,0,0.00
2013-2-16,71.5,55.6,46.5,48.0,43.9,36.0,91,67,40,30.23,30.06,3,0,0,0.00
2013-2-17,62.1,51.2,43.5,47.0,43.9,41.0,95,78,47,30.06,29.98,2,0,0,0.00
2013-2-18,55.3,49.1,44.2,45.0,40.3,36.0,91,72,54,30.04,29.96,7,1,0,0.00
2013-2-19,49.6,45.1,38.6,44.0,38.2,33.0,92,77,57,29.97,29.75,5,0,0,0.32
2013-2-20,61.2,47.3,36.6,40.0,35.3,32.0,86,66,37,30.06,29.84,2,0,0,0.00
2013-2-21,63.5,49.0,38.2,38.0,34.9,27.0,89,63,26,30.16,30.05,3,0,0,0.00
2013-2-22,62.6,50.0,40.3,45.0,40.2,35.0,89,71,36,30.25,30.16,5,0,0,0.00
2013-2-23,62.1,51.5,43.8,47.0,37.3,28.0,91,62,28,30.26,30.17,4,0,0,0.00
2013-2-24,65.2,51.6,43.1,41.0,29.8,19.0,77,47,18,30.25,30.18,4,0,0,0.00
2013-2-25,65.3,51.6,41.8,45.0,41.8,38.0,93,72,43,30.26,30.18,6,0,0,0.00
2013-2-26,69.6,52.4,40.3,41.0,33.6,21.0,81,54,16,30.21,30.15,2,0,0,0.00
2013-2-27,66.4,51.9,41.1,45.0,40.3,32.0,87,67,35,30.36,30.20,3,0,0,0.00
2013-2-28,66.4,54.2,45.7,51.0,47.4,43.0,93,79,54,30.45,30.36,4,0,0,0.00
2013-3-1,75.6,56.7,46.0,55.0,47.6,45.0,97,76,34,30.43,30.24,4,0,0,0.00
2013-3-2,69.9,56.6,49.2,52.0,48.8,46.0,90,76,54,30.24,30.07,1,0,0,0.00
2013-3-3,63.4,53.2,49.1,49.0,47.3,45.0,92,81,58,30.10,30.06,6,1,0,0.00
2013-3-4,57.6,49.5,44.2,45.0,43.5,41.0,89,80,60,30.15,30.06,4,0,0,0.00
2013-3-5,59.3,50.3,41.9,46.0,41.1,39.0,91,73,51,30.06,29.83,6,1,0,0.19
2013-3-6,57.6,50.9,43.2,48.0,42.7,39.0,94,75,51,30.07,29.84,9,1,0,0.22
2013-3-7,59.6,49.7,42.5,46.0,41.7,36.0,94,77,45,29.99,29.85,3,0,0,0.02
2013-3-8,63.5,51.3,43.5,45.0,40.4,36.0,92,69,40,30.04,29.83,3,0,0,0.00
2013-3-9,66.4,52.3,40.8,47.0,41.5,38.0,92,70,40,30.31,30.04,3,0,0,0.00
2013-3-10,66.4,53.3,42.6,48.0,42.8,34.0,93,71,33,30.34,30.27,4,0,0,0.00
2013-3-11,68.4,53.3,42.1,48.0,44.6,39.0,93,75,41,30.27,30.12,3,0,0,0.00
2013-3-12,67.9,54.6,47.0,51.0,48.4,45.0,96,81,54,30.16,30.09,3,0,0,0.00
2013-3-13,78.1,57.9,45.1,54.0,49.7,44.0,97,77,41,30.16,30.07,4,0,0,0.00
2013-3-14,62.0,54.1,47.7,52.0,48.7,43.0,96,83,65,30.17,30.09,2,0,0,0.00
2013-3-15,67.6,55.0,45.7,50.0,47.2,43.0,95,77,46,30.13,30.05,2,0,0,0.00
2013-3-16,68.6,57.0,48.0,50.0,47.1,43.0,95,72,47,30.12,30.04,3,0,0,0.00
2013-3-17,66.9,54.4,44.3,45.0,42.1,37.0,88,66,38,30.15,30.05,3,0,0,0.00
2013-3-18,63.9,52.5,43.9,48.0,44.4,41.0,93,75,51,30.14,30.04,3,0,0,0.00
2013-3-19,66.8,53.6,46.0,48.0,44.8,39.0,93,74,37,30.15,30.05,3,0,0,0.11
2013-3-20,59.5,53.6,49.5,55.0,50.6,44.0,96,90,65,30.14,30.06,3,0,0,0.07
2013-3-21,65.3,53.0,41.2,50.0,43.4,39.0,95,73,44,30.12,30.02,5,0,0,0.00
2013-3-22,70.4,55.1,40.2,43.0,35.4,23.0,86,54,18,30.11,30.03,3,0,0,0.00
2013-3-23,69.1,54.7,41.5,42.0,34.8,26.0,80,51,24,30.14,30.06,3,0,0,0.00
2013-3-24,66.6,52.5,43.5,47.0,44.1,40.0,90,75,47,30.09,30.00,3,0,0,0.00
2013-3-25,57.5,51.1,46.0,45.0,43.7,42.0,91,77,61,30.03,29.95,7,1,0,0.00
2013-3-26,62.4,53.1,47.4,47.0,44.7,42.0,86,74,56,30.00,29.95,5,0,0,0.00
2013-3-27,61.6,54.5,47.3,53.0,49.3,44.0,95,83,65,30.01,29.95,3,0,0,0.00
2013-3-28,66.8,57.3,51.9,54.0,52.0,49.0,95,84,60,30.09,30.00,2,0,0,0.00
2013-3-29,76.7,57.5,48.5,55.0,50.2,47.0,97,79,41,30.09,30.02,7,0,0,0.00
2013-3-30,69.1,56.8,52.0,54.0,51.5,49.0,95,84,53,30.07,29.99,2,0,0,0.05
2013-3-31,68.3,58.4,52.5,57.0,52.9,48.0,96,83,48,30.06,30.00,6,0,0,0.26
2013-4-1,65.6,57.0,50.8,56.0,52.2,48.0,97,85,56,30.16,30.04,1,0,0,0.44
2013-4-2,64.7,53.5,47.0,53.0,49.3,46.0,96,86,62,30.17,30.11,4,0,0,0.00
2013-4-3,73.3,56.2,50.8,55.0,50.2,48.0,92,82,49,30.14,30.01,3,0,0,0.00
2013-4-4,62.7,55.6,51.1,58.0,53.3,49.0,96,92,79,30.12,29.98,4,1,0,0.40
2013-4-5,64.5,57.9,53.5,56.0,53.1,51.0,96,85,62,30.18,30.11,2,0,0,0.01
2013-4-6,63.2,56.6,53.2,55.0,52.5,50.0,95,86,68,30.20,30.15,5,0,0,0.00
2013-4-7,64.3,56.2,51.9,54.0,50.3,46.0,95,81,61,30.17,29.86,4,1,0,0.04
2013-4-8,72.0,56.5,46.1,49.0,38.1,23.0,89,54,16,30.02,29.81,10,1,0,0.00
2013-4-9,80.3,62.8,47.1,44.0,35.9,25.0,74,43,13,30.10,30.03,4,0,0,0.00
2013-4-10,80.3,66.6,55.7,52.0,46.6,37.0,82,51,29,30.17,30.06,3,0,0,0.00
2013-4-11,71.8,59.4,48.5,51.0,47.2,45.0,90,66,38,30.08,29.85,3,0,0,0.00
2013-4-12,70.8,56.5,46.8,50.0,46.5,44.0,94,72,41,29.91,29.84,3,0,0,0.00
2013-4-13,71.3,57.8,49.2,49.0,44.5,39.0,86,64,35,29.90,29.83,4,0,0,0.00
2013-4-14,67.8,55.4,43.9,47.0,39.4,30.0,84,58,28,29.93,29.87,3,0,0,0.00
2013-4-15,63.7,52.4,43.1,47.0,38.7,33.0,91,63,34,29.95,29.86,5,1,0,0.00
2013-4-16,69.9,55.1,40.9,40.0,34.1,27.0,77,49,20,30.15,29.95,5,0,0,0.00
2013-4-17,73.7,59.6,48.6,42.0,30.0,20.0,64,36,13,30.26,30.16,5,0,0,0.00
2013-4-18,74.9,59.6,46.8,47.0,40.8,34.0,87,53,24,30.26,30.20,3,0,0,0.00
2013-4-19,70.9,58.5,46.7,52.0,47.6,44.0,93,69,40,30.23,30.07,3,0,0,0.00
2013-4-20,77.7,61.6,49.1,48.0,45.7,41.0,90,61,27,30.10,30.01,4,0,0,0.00
2013-4-21,77.9,61.5,47.6,52.0,47.4,43.0,90,64,29,30.04,29.95,3,0,0,0.00
2013-4-22,83.8,64.3,51.9,51.0,46.6,42.0,87,57,25,29.96,29.88,3,0,0,0.00
2013-4-23,80.3,59.5,47.9,50.0,41.8,23.0,92,60,12,29.93,29.87,4,0,0,0.00
2013-4-24,62.1,54.3,48.9,49.0,47.4,46.0,91,78,61,29.96,29.84,4,0,0,0.00
2013-4-25,64.3,56.0,50.8,50.0,48.5,46.0,88,77,58,30.14,29.95,4,0,0,0.00
2013-4-26,63.7,55.1,50.7,49.0,47.3,46.0,87,76,59,30.23,30.12,2,0,0,0.00
2013-4-27,64.8,55.1,49.4,50.0,47.9,46.0,88,78,59,30.23,30.09,3,0,0,0.00
2013-4-28,71.5,59.7,49.6,52.0,49.6,47.0,91,71,47,30.09,29.89,5,0,0,0.00
2013-4-29,78.6,64.5,51.4,57.0,51.0,49.0,94,66,36,29.90,29.78,2,0,0,0.00
2013-4-30,73.9,61.7,51.0,53.0,48.0,29.0,94,65,32,29.85,29.80,2,0,0,0.00
2013-5-1,84.0,65.7,53.9,49.0,35.1,17.0,81,38,9,30.09,29.84,2,0,0,0.00
2013-5-2,91.8,67.9,51.3,51.0,40.6,23.0,82,45,9,30.15,30.09,2,0,0,0.00
2013-5-3,81.8,65.0,52.6,52.0,44.3,34.0,86,51,22,30.09,29.81,3,0,0,0.00
2013-5-4,74.0,59.8,50.1,55.0,50.3,45.0,90,73,36,29.81,29.61,5,0,0,0.00
2013-5-5,68.3,60.1,54.7,51.0,48.4,46.0,83,66,46,29.81,29.61,5,0,0,0.00
2013-5-6,71.1,61.6,54.4,53.0,50.4,48.0,82,68,46,29.98,29.81,2,0,0,0.00
2013-5-7,71.5,60.8,54.8,56.0,52.9,51.0,92,76,52,30.05,29.96,5,0,0,0.00
2013-5-8,64.0,56.5,53.1,52.0,50.2,48.0,91,80,60,30.14,30.05,4,0,0,0.00
2013-5-9,64.7,57.0,52.6,51.0,49.1,48.0,85,76,60,30.18,30.11,4,1,0,0.00
2013-5-10,65.0,56.5,51.4,52.0,50.4,48.0,91,81,63,30.20,30.13,5,1,0,0.00
2013-5-11,71.1,59.2,52.5,55.0,51.6,50.0,92,78,53,30.17,30.08,4,0,0,0.00
2013-5-12,70.3,59.9,50.2,56.0,52.5,49.0,96,78,59,30.15,30.05,4,0,0,0.00
2013-5-13,72.5,61.6,52.9,56.0,52.1,50.0,91,73,54,30.10,29.96,5,0,0,0.00
2013-5-14,69.8,60.3,53.2,51.0,48.9,45.0,87,68,47,30.01,29.93,6,1,0,0.00
2013-5-15,67.9,58.1,50.7,51.0,47.8,46.0,84,70,49,30.05,30.00,5,1,0,0.00
2013-5-16,66.8,59.0,53.1,55.0,51.9,47.0,87,78,62,30.03,29.98,5,1,0,0.00
2013-5-17,67.9,57.8,49.9,51.0,48.2,45.0,92,72,45,30.09,29.97,5,1,0,0.00
2013-5-18,75.1,61.6,49.9,52.0,48.7,46.0,90,66,38,30.13,30.07,4,0,0,0.00
2013-5-19,78.8,63.7,50.4,53.0,48.2,41.0,91,62,26,30.12,29.99,3,0,0,0.00
2013-5-20,80.7,62.9,51.1,56.0,49.9,46.0,92,67,31,30.00,29.95,3,0,0,0.00
2013-5-21,73.7,60.6,50.7,49.0,45.6,39.0,87,61,33,29.99,29.91,4,0,0,0.00
2013-5-22,69.6,57.5,46.5,42.0,34.9,24.0,70,45,20,30.02,29.91,5,1,0,0.00
2013-5-23,68.6,56.9,45.8,46.0,41.8,38.0,82,59,34,30.01,29.91,4,0,0,0.00
2013-5-24,68.6,57.2,46.8,48.0,44.8,39.0,92,66,36,30.00,29.95,6,1,0,0.00
2013-5-25,66.9,57.4,49.4,49.0,46.3,44.0,86,68,44,30.05,29.95,6,1,0,0.00
2013-5-26,65.5,58.4,53.2,53.0,51.6,49.0,93,79,62,30.14,30.05,4,1,0,0.00
2013-5-27,62.9,57.0,50.8,57.0,52.7,48.0,93,86,72,30.13,29.99,3,0,0,0.00
2013-5-28,70.9,61.4,55.4,58.0,54.2,48.0,96,79,56,30.01,29.93,3,0,0,0.02
2013-5-29,74.6,61.6,53.9,55.0,51.1,45.0,88,71,39,29.98,29.91,3,0,0,0.00
2013-5-30,75.1,61.9,48.5,52.0,47.4,43.0,94,63,35,29.99,29.93,3,0,0,0.00
2013-5-31,79.0,63.9,49.5,53.0,49.2,44.0,91,63,30,30.01,29.91,3,0,0,0.00
2013-6-1,78.8,65.3,52.2,54.0,51.1,49.0,90,63,38,29.95,29.79,2,0,0,0.00
2013-6-2,70.1,60.8,53.5,53.0,50.9,49.0,89,71,53,29.80,29.70,3,0,0,0.00
2013-6-3,66.3,59.1,54.2,52.0,51.2,50.0,89,76,59,29.87,29.73,5,0,0,0.00
2013-6-4,66.4,58.2,54.7,53.0,51.1,50.0,86,78,60,29.98,29.86,4,1,0,0.00
2013-6-5,64.3,56.8,53.3,52.0,50.1,49.0,89,79,62,30.00,29.95,4,1,0,0.00
2013-6-6,67.3,57.7,52.3,53.0,50.9,50.0,92,80,58,29.96,29.89,5,1,0,0.00
2013-6-7,74.2,60.2,53.8,56.0,52.6,51.0,92,78,53,29.90,29.75,3,0,0,0.00
2013-6-8,67.8,59.6,53.8,55.0,53.2,51.0,93,80,61,29.83,29.73,4,0,0,0.00
2013-6-9,64.7,58.6,56.5,56.0,54.6,53.0,93,86,70,29.89,29.82,4,1,0,0.00
2013-6-10,70.1,61.1,55.7,54.0,52.5,50.0,92,74,54,29.96,29.82,5,1,0,0.00
2013-6-11,69.9,61.7,55.9,54.0,52.1,50.0,86,72,53,29.99,29.90,4,0,0,0.00
2013-6-12,77.4,62.7,50.2,52.0,49.5,46.0,94,65,36,29.99,29.91,3,0,0,0.00
2013-6-13,80.1,63.3,48.2,51.0,47.9,40.0,91,62,26,30.09,29.99,3,0,0,0.00
2013-6-14,77.0,63.1,52.0,55.0,50.5,47.0,92,67,35,30.00,29.86,2,0,0,0.00
2013-6-15,66.3,56.9,52.0,52.0,49.7,49.0,88,78,59,30.01,29.84,4,1,0,0.00
2013-6-16,72.0,61.4,52.6,54.0,51.0,49.0,89,70,52,30.09,30.00,4,0,0,0.00
2013-6-17,74.9,62.4,52.5,56.0,52.8,50.0,92,73,50,30.09,30.04,4,0,0,0.00
2013-6-18,68.9,61.0,54.1,54.0,51.5,47.0,91,72,48,30.04,29.99,5,1,0,0.00
2013-6-19,76.0,62.5,49.6,51.0,47.2,43.0,88,61,32,30.05,30.00,4,0,0,0.00
2013-6-20,78.1,63.4,50.7,52.0,48.1,41.0,90,61,27,30.02,29.95,4,0,0,0.00
2013-6-21,76.3,63.4,50.8,53.0,50.2,46.0,90,65,36,29.98,29.93,3,0,0,0.00
2013-6-22,77.9,64.2,51.7,55.0,51.4,48.0,90,66,38,29.94,29.86,2,0,0,0.00
2013-6-23,62.7,59.2,55.9,60.0,56.4,53.0,93,90,84,29.89,29.82,4,0,0,0.00
2013-6-24,61.8,58.3,56.3,59.0,55.8,54.0,95,91,82,29.90,29.79,2,0,0,0.02
2013-6-25,71.5,63.8,58.4,66.0,61.6,57.0,96,93,78,29.98,29.87,5,0,0,0.27
2013-6-26,78.1,68.1,61.3,65.0,61.0,59.0,96,80,56,30.05,29.97,2,0,0,0.02
2013-6-27,82.0,68.3,58.6,63.0,59.0,57.0,96,75,47,30.08,30.02,2,0,0,0.00
2013-6-28,79.2,67.3,57.0,63.0,57.6,55.0,96,73,49,30.04,29.93,3,0,0,0.00
2013-6-29,81.2,68.5,57.2,62.0,56.8,55.0,95,69,41,29.93,29.82,2,0,0,0.00
2013-6-30,76.3,66.8,57.3,58.0,56.6,54.0,92,71,53,29.85,29.79,3,0,0,0.00
2013-7-1,79.4,66.3,56.6,61.0,56.5,54.0,94,73,47,29.86,29.81,5,0,0,0.00
2013-7-2,74.0,63.6,58.3,59.0,56.7,55.0,92,79,58,29.94,29.84,3,0,0,0.00
2013-7-3,81.6,66.4,58.4,60.0,57.1,55.0,94,75,45,29.93,29.80,3,0,0,0.00
2013-7-4,76.3,67.6,60.5,60.0,56.4,52.0,91,69,51,29.80,29.71,2,0,0,0.00
2013-7-5,68.9,60.7,55.9,53.0,51.8,51.0,86,73,56,29.79,29.72,6,2,0,0.00
2013-7-6,67.4,58.9,55.6,54.0,52.3,51.0,87,79,62,29.82,29.76,4,1,0,0.00
2013-7-7,69.4,61.1,56.2,55.0,53.3,52.0,87,76,59,29.88,29.79,4,0,0,0.00
2013-7-8,68.4,60.5,56.2,55.0,53.5,52.0,90,79,61,29.99,29.87,3,0,0,0.00
2013-7-9,73.7,61.8,54.5,57.0,54.5,53.0,95,79,53,30.03,29.95,3,0,0,0.00
2013-7-10,68.3,59.5,54.4,55.0,53.2,52.0,92,81,60,30.01,29.93,5,0,0,0.00
2013-7-11,65.8,57.8,53.3,54.0,51.9,51.0,92,81,63,29.96,29.91,5,1,0,0.00
2013-7-12,66.3,59.2,53.3,54.0,52.1,50.0,90,78,62,29.95,29.90,3,0,0,0.00
2013-7-13,69.9,59.0,51.1,55.0,52.5,49.0,95,81,56,29.97,29.90,4,0,0,0.02
2013-7-14,67.1,61.5,54.7,54.0,52.7,52.0,90,74,62,30.01,29.92,4,1,0,0.00
2013-7-15,65.0,56.9,52.5,54.0,51.8,50.0,92,84,65,29.94,29.86,4,0,0,0.00
2013-7-16,68.8,60.2,55.9,57.0,53.4,50.0,88,78,61,30.03,29.87,5,1,0,0.00
2013-7-17,69.4,61.6,56.3,56.0,54.2,53.0,88,77,60,30.09,30.02,4,0,0,0.00
2013-7-18,69.1,60.5,55.0,55.0,53.5,52.0,91,79,61,30.07,29.97,3,0,0,0.00
2013-7-19,69.6,60.6,55.3,56.0,53.4,52.0,89,78,61,29.96,29.86,5,0,0,0.00
2013-7-20,68.4,59.1,54.4,55.0,52.8,52.0,92,80,61,29.87,29.78,4,0,0,0.00
2013-7-21,66.8,58.5,54.8,55.0,53.0,52.0,92,82,64,29.90,29.78,3,0,0,0.00
2013-7-22,67.4,59.6,55.3,57.0,55.6,53.0,95,87,68,29.97,29.89,4,0,0,0.00
2013-7-23,70.8,62.4,56.9,58.0,55.7,54.0,93,80,60,30.01,29.95,2,0,0,0.00
2013-7-24,72.3,62.9,56.7,58.0,55.8,54.0,95,79,57,29.99,29.93,3,0,0,0.00
2013-7-25,68.8,60.1,54.5,55.0,53.6,52.0,92,80,60,30.04,29.94,3,0,0,0.00
2013-7-26,69.4,59.8,54.7,57.0,54.3,52.0,93,83,63,30.10,30.02,4,0,0,0.00
2013-7-27,63.7,58.2,55.3,56.0,54.5,53.0,95,88,74,30.04,29.89,3,0,0,0.00
2013-7-28,62.1,57.3,55.1,56.0,53.7,52.0,96,88,73,29.89,29.83,4,1,0,0.00
2013-7-29,68.6,59.4,55.6,56.0,53.1,52.0,89,80,63,30.02,29.85,3,1,0,0.00
2013-7-30,67.6,59.4,54.8,55.0,53.1,52.0,91,80,63,30.10,30.02,5,0,0,0.00
2013-7-31,67.6,59.9,54.1,55.0,52.8,52.0,92,78,60,30.09,30.01,5,1,0,0.00
2013-8-1,69.3,61.2,55.4,54.0,52.7,52.0,88,74,57,30.07,29.96,6,1,0,0.00
2013-8-2,69.8,60.5,53.9,55.0,53.1,50.0,91,77,57,29.98,29.92,6,0,0,0.00
2013-8-3,67.8,58.9,54.1,55.0,53.0,51.0,92,81,63,29.98,29.93,5,1,0,0.00
2013-8-4,66.4,58.2,54.4,54.0,52.8,52.0,92,83,63,30.01,29.96,6,1,0,0.00
2013-8-5,65.6,58.6,54.4,54.0,52.5,51.0,91,81,64,30.03,29.96,5,1,0,0.00
2013-8-6,67.3,59.3,54.4,56.0,53.4,52.0,91,81,61,30.05,29.98,4,0,0,0.00
2013-8-7,70.1,61.4,56.6,57.0,55.3,53.0,92,81,60,30.10,30.04,3,0,0,0.00
2013-8-8,71.3,61.3,56.6,58.0,55.5,52.0,94,82,54,30.04,29.95,4,0,0,0.02
2013-8-9,68.6,60.0,55.4,56.0,54.4,52.0,94,82,61,30.00,29.92,5,1,0,0.00
2013-8-10,70.3,62.0,57.3,58.0,55.2,54.0,90,79,60,30.05,29.99,5,1,0,0.00
2013-8-11,68.4,60.5,56.0,56.0,55.2,54.0,95,83,64,30.03,29.96,4,0,0,0.00
2013-8-12,70.4,61.1,56.7,57.0,54.8,54.0,90,80,60,30.00,29.95,3,0,0,0.00
2013-8-13,77.0,64.5,57.0,59.0,54.9,53.0,89,73,49,29.98,29.92,4,0,0,0.00
2013-8-14,75.1,64.1,56.9,60.0,56.1,53.0,91,76,53,29.98,29.92,4,1,0,0.00
2013-8-15,76.8,66.9,62.0,63.0,60.7,59.0,92,82,60,29.97,29.91,5,1,0,0.00
2013-8-16,77.2,66.5,60.5,61.0,59.3,56.0,94,79,51,30.00,29.94,4,0,0,0.00
2013-8-17,77.6,65.2,58.6,59.0,56.8,55.0,89,76,51,29.99,29.88,4,1,0,0.00
2013-8-18,77.4,66.1,58.9,60.0,57.7,56.0,92,76,53,29.89,29.79,3,0,0,0.00
2013-8-19,74.6,63.5,58.4,59.0,57.4,56.0,94,82,56,29.91,29.81,5,0,0,0.00
2013-8-20,70.9,62.4,58.7,58.0,57.0,55.0,94,83,63,29.91,29.85,4,0,0,0.00
2013-8-21,70.8,62.4,58.3,56.0,54.8,54.0,88,77,57,29.95,29.88,3,0,0,0.00
2013-8-22,69.9,62.3,56.6,55.0,54.2,53.0,91,76,57,29.98,29.90,4,0,0,0.00
2013-8-23,69.8,62.0,57.2,56.0,54.7,53.0,88,78,60,29.93,29.82,4,1,0,0.00
2013-8-24,72.3,63.3,57.5,58.0,56.3,54.0,90,79,58,29.90,29.84,4,1,0,0.00
2013-8-25,76.3,66.7,61.5,62.0,59.9,57.0,92,79,60,29.95,29.88,5,0,0,0.00
2013-8-26,74.4,65.2,59.6,59.0,56.9,55.0,93,76,53,30.01,29.91,3,0,0,0.00
2013-8-27,73.3,63.6,54.4,59.0,56.8,52.0,95,80,57,29.91,29.84,5,0,0,0.00
2013-8-28,75.3,65.8,59.8,62.0,59.7,57.0,92,81,62,29.95,29.85,3,0,0,0.00
2013-8-29,75.3,66.3,60.7,62.0,60.5,59.0,94,82,62,30.07,29.95,3,0,0,0.00
2013-8-30,84.1,69.5,60.4,63.0,60.2,58.0,95,75,46,30.04,29.93,3,0,0,0.00
2013-8-31,73.0,64.3,57.3,60.0,57.9,55.0,95,81,60,29.98,29.91,4,0,0,0.00
2013-9-1,72.1,64.8,58.7,61.0,58.1,55.0,90,79,61,29.95,29.89,2,0,0,0.00
2013-9-2,76.5,67.2,61.6,62.0,61.2,59.0,93,82,60,29.96,29.89,3,0,0,0.00
2013-9-3,74.9,66.1,57.5,61.0,58.7,55.0,95,79,53,30.00,29.93,4,0,0,0.00
2013-9-4,78.5,67.1,58.1,60.0,58.2,56.0,94,75,50,30.03,29.94,3,0,0,0.00
2013-9-5,80.5,67.6,58.3,59.0,56.1,53.0,92,69,40,30.01,29.95,4,0,0,0.00
2013-9-6,87.6,70.3,55.4,59.0,53.7,46.0,93,61,27,29.99,29.83,1,0,0,0.00
2013-9-7,88.0,70.2,58.1,57.0,52.3,49.0,91,56,28,29.88,29.82,2,0,0,0.00
2013-9-8,74.9,63.2,57.3,59.0,56.7,55.0,94,81,55,29.88,29.78,2,0,0,0.00
2013-9-9,75.3,63.3,55.9,59.0,56.8,54.0,95,81,52,29.82,29.73,3,0,0,0.00
2013-9-10,72.3,64.0,58.7,60.0,58.5,57.0,94,83,65,29.90,29.74,4,0,0,0.00
2013-9-11,74.0,65.9,62.0,60.0,58.0,57.0,86,76,57,29.99,29.90,4,0,0,0.00
2013-9-12,73.0,64.4,59.9,60.0,58.9,57.0,94,83,61,29.98,29.90,3,0,0,0.00
2013-9-13,72.7,62.9,58.0,58.0,56.0,54.0,92,79,58,29.91,29.77,4,1,0,0.00
2013-9-14,73.0,61.8,56.5,58.0,55.4,54.0,92,81,58,29.82,29.75,7,1,0,0.00
2013-9-15,74.6,64.2,56.6,60.0,55.8,53.0,91,75,52,29.86,29.77,4,1,0,0.00
2013-9-16,79.2,66.0,59.5,60.0,57.7,55.0,92,76,46,29.89,29.79,3,0,0,0.00
2013-9-17,77.7,65.3,57.2,57.0,53.9,50.0,92,69,39,29.88,29.82,3,0,0,0.00
2013-9-18,79.4,64.9,53.9,55.0,50.5,46.0,85,63,33,29.90,29.83,2,0,0,0.00
2013-9-19,80.1,64.3,52.0,57.0,51.9,48.0,90,67,35,29.85,29.76,2,0,0,0.00
2013-9-20,72.0,62.3,51.6,61.0,56.5,49.0,94,82,67,29.85,29.77,3,0,0,0.00
2013-9-21,68.1,62.9,56.2,62.0,58.0,53.0,95,84,72,29.89,29.80,4,0,0,0.58
2013-9-22,72.1,61.8,52.6,57.0,53.2,51.0,97,76,49,30.00,29.89,4,0,0,0.00
2013-9-23,80.1,65.3,53.5,60.0,54.9,50.0,92,72,42,30.01,29.93,2,0,0,0.00
2013-9-24,77.2,63.8,55.4,59.0,53.3,46.0,95,72,39,29.99,29.91,4,0,0,0.00
2013-9-25,73.9,61.3,51.9,48.0,45.7,42.0,83,59,35,29.93,29.82,4,0,0,0.00
2013-9-26,74.9,61.0,48.9,50.0,42.4,35.0,82,54,25,29.98,29.84,3,0,0,0.00
2013-9-27,78.1,63.1,50.7,46.0,40.4,34.0,70,47,24,30.08,29.98,1,0,0,0.00
2013-9-28,79.6,63.5,51.4,55.0,44.8,37.0,86,55,22,30.09,30.01,2,0,0,0.00
2013-9-29,75.8,64.8,55.9,61.0,57.6,53.0,94,79,56,30.10,30.05,3,0,0,0.00
2013-9-30,74.4,64.9,55.1,63.0,60.2,46.0,95,85,64,30.07,29.98,3,0,0,0.00
2013-10-1,73.3,61.0,50.5,54.0,48.2,45.0,94,66,40,30.01,29.92,3,0,0,0.00
2013-10-2,74.0,61.2,51.9,55.0,49.1,41.0,91,67,39,30.01,29.92,2,0,0,0.00
2013-10-3,77.4,63.7,50.8,44.0,35.7,24.0,68,40,15,30.06,29.95,6,0,0,0.00
2013-10-4,82.2,69.4,56.5,34.0,26.9,22.0,38,22,11,30.08,29.96,5,1,0,0.00
2013-10-5,87.6,72.0,57.3,38.0,27.5,19.0,38,21,11,30.18,30.08,7,1,0,0.00
2013-10-6,88.4,66.9,52.3,44.0,36.2,29.0,59,35,12,30.10,29.99,2,0,0,0.00
2013-10-7,77.0,63.6,53.6,49.0,40.4,34.0,78,46,23,29.99,29.88,1,0,0,0.00
2013-10-8,72.1,58.3,48.8,53.0,47.9,44.0,90,71,37,29.90,29.71,2,0,0,0.00
2013-10-9,69.1,58.5,49.4,49.0,46.3,40.0,89,67,36,29.75,29.62,3,0,0,0.00
2013-10-10,66.1,55.9,49.4,51.0,48.9,46.0,90,78,57,30.01,29.75,2,0,0,0.00
2013-10-11,64.2,55.1,49.2,50.0,48.9,47.0,92,81,57,30.08,29.98,2,0,0,0.00
2013-10-12,63.9,54.1,47.0,52.0,48.2,45.0,96,82,61,30.00,29.90,3,0,0,0.00
2013-10-13,72.3,57.7,47.6,54.0,47.4,44.0,95,72,36,30.06,29.91,2,0,0,0.00
2013-10-14,80.9,61.6,47.9,49.0,41.2,33.0,85,53,18,30.10,30.00,3,0,0,0.00
2013-10-15,83.0,64.2,49.2,44.0,35.5,27.0,71,40,13,30.02,29.95,3,0,0,0.00
2013-10-16,84.7,64.5,50.7,47.0,38.1,32.0,72,42,15,30.07,29.98,3,0,0,0.00
2013-10-17,82.8,63.1,50.4,50.0,38.5,32.0,86,44,18,30.06,29.97,0,0,0,0.00
2013-10-18,71.3,56.8,48.3,54.0,49.4,46.0,96,78,50,30.04,29.98,0,0,0,0.00
2013-10-19,77.7,57.8,47.0,54.0,48.7,44.0,96,75,37,30.06,29.99,0,0,0,0.00
2013-10-20,66.1,55.4,48.8,53.0,50.0,48.0,96,83,58,30.03,29.92,0,0,0,0.00
2013-10-21,63.5,54.9,50.7,51.0,49.6,48.0,92,83,62,30.00,29.92,0,0,0,0.00
2013-10-22,66.1,54.6,49.6,53.0,50.1,48.0,96,86,60,30.01,29.93,3,0,0,0.00
2013-10-23,65.0,53.9,50.1,53.0,49.7,49.0,96,87,62,29.98,29.90,2,0,0,0.00
2013-10-24,62.3,53.9,50.4,49.0,48.4,47.0,91,82,62,30.09,29.96,3,0,0,0.00
2013-10-25,67.6,55.7,47.1,53.0,48.9,46.0,96,80,54,30.15,30.07,2,0,0,0.00
2013-10-26,73.5,56.8,47.6,56.0,49.9,46.0,97,80,46,30.13,30.01,0,0,0,0.00
2013-10-27,61.0,53.4,49.8,51.0,48.7,44.0,95,84,63,30.03,29.67,5,1,0,0.00
2013-10-28,63.2,53.9,45.5,50.0,46.3,43.0,95,77,50,29.83,29.66,6,0,0,0.00
2013-10-29,64.0,55.7,47.9,50.0,47.1,44.0,90,74,49,30.04,29.83,3,0,0,0.00
2013-10-30,67.9,53.9,46.1,52.0,46.4,40.0,96,78,46,30.14,30.04,2,0,0,0.00
2013-10-31,73.9,55.9,45.4,50.0,44.1,37.0,89,67,34,30.17,30.07,1,0,0,0.00
2013-11-1,78.6,60.6,48.3,49.0,44.0,41.0,86,60,27,30.12,30.00,2,0,0,0.00
2013-11-2,66.8,56.0,48.8,52.0,48.6,44.0,94,77,55,30.01,29.90,0,0,0,0.00
2013-11-3,65.8,54.0,45.5,47.0,38.0,30.0,91,58,27,30.04,29.91,0,0,0,0.00
2013-11-4,72.3,56.4,42.5,39.0,33.1,22.0,78,47,15,30.06,29.90,2,0,0,0.00
2013-11-5,73.7,59.3,47.9,39.0,34.5,29.0,60,42,23,30.21,30.04,2,0,0,0.00
2013-11-6,74.9,60.4,47.0,43.0,37.3,34.0,68,46,24,30.24,30.15,4,0,0,0.00
2013-11-7,73.9,59.5,50.4,48.0,41.9,36.0,83,55,28,30.15,30.07,1,0,0,0.00
2013-11-8,71.5,56.7,46.1,53.0,48.5,44.0,96,76,46,30.07,29.95,2,0,0,0.00
2013-11-9,72.0,55.0,45.2,52.0,47.6,44.0,96,79,41,30.05,29.96,2,0,0,0.00
2013-11-10,65.3,55.2,49.2,51.0,49.4,47.0,95,82,56,30.11,30.01,3,0,0,0.00
2013-11-11,64.7,56.0,48.5,52.0,49.3,46.0,94,79,61,30.15,30.06,2,0,0,0.00
2013-11-12,72.3,59.7,52.6,51.0,47.8,40.0,86,67,32,30.26,30.14,1,0,0,0.00
2013-11-13,72.5,56.8,49.2,54.0,50.9,47.0,95,82,50,30.24,30.10,2,0,0,0.00
2013-11-14,65.2,55.4,49.2,53.0,50.5,43.0,94,84,64,30.11,29.87,2,0,0,0.00
2013-11-15,65.5,52.9,43.8,46.0,41.2,38.0,87,67,39,29.86,29.73,2,0,0,0.00
2013-11-16,65.2,53.9,45.5,50.0,45.4,40.0,93,75,41,29.91,29.75,4,0,0,0.00
2013-11-17,63.4,53.7,47.1,50.0,47.2,44.0,93,80,51,30.08,29.91,5,0,0,0.00
2013-11-18,60.2,51.7,44.8,50.0,46.6,44.0,96,83,62,30.14,30.07,1,0,0,0.00
2013-11-19,59.8,56.0,52.5,56.0,51.5,46.0,96,85,69,30.09,29.92,4,0,0,0.62
2013-11-20,58.6,56.0,52.0,58.0,55.3,51.0,97,97,96,29.93,29.82,4,0,0,0.58
2013-11-21,64.8,56.0,48.9,51.0,36.0,17.0,97,57,21,29.96,29.88,6,1,0,0.04
2013-11-22,72.8,62.3,50.8,21.0,12.9,7.0,25,15,9,30.00,29.89,12,1,0,0.00
2013-11-23,68.4,57.1,49.5,47.0,29.2,19.0,92,40,17,30.09,29.93,13,1,0,0.00
2013-11-24,65.0,51.8,42.8,50.0,43.7,40.0,96,76,47,30.23,30.09,1,0,0,0.00
2013-11-25,68.6,52.2,42.8,46.0,41.4,39.0,92,69,37,30.31,30.23,2,0,0,0.00
2013-11-26,64.7,54.2,45.8,45.0,40.8,38.0,85,63,38,30.25,30.02,4,0,0,0.00
2013-11-27,66.8,56.3,46.5,47.0,43.2,39.0,88,63,44,30.01,29.83,5,0,0,0.00
2013-11-28,70.6,58.3,49.8,46.0,41.3,36.0,77,55,29,30.06,29.84,4,0,0,0.00
2013-11-29,69.1,54.3,45.8,48.0,43.6,39.0,85,69,39,30.20,30.06,2,0,0,0.00
2013-11-30,67.3,52.7,44.9,53.0,46.7,43.0,96,82,50,30.26,30.18,1,0,0,0.00
2013-12-1,73.2,54.4,44.9,51.0,45.1,41.0,95,74,32,30.32,30.21,2,0,0,0.00
2013-12-2,64.5,52.6,43.8,53.0,48.0,42.0,96,85,58,30.21,29.95,4,0,0,0.00
2013-12-3,56.6,49.8,41.2,53.0,35.6,26.0,93,60,35,29.95,29.84,4,0,0,0.00
2013-12-4,56.5,43.6,35.5,30.0,20.6,10.0,78,44,21,30.06,29.92,6,0,0,0.00
2013-12-5,53.2,40.8,31.8,30.0,19.5,10.0,75,46,21,30.15,30.06,3,0,0,0.00
2013-12-6,52.8,44.4,33.2,48.0,34.2,23.0,93,70,33,30.18,29.91,8,0,0,0.33
2013-12-7,51.0,42.0,34.9,46.0,31.5,24.0,93,70,36,30.24,29.91,3,0,0,0.01
2013-12-8,47.0,38.5,32.5,29.0,20.8,14.0,84,52,27,30.30,30.21,9,1,0,0.00
2013-12-9,51.7,40.3,30.1,24.0,14.9,10.0,59,38,19,30.40,30.30,9,1,0,0.00
2013-12-10,56.2,44.5,35.3,26.0,22.9,18.0,63,45,24,30.39,30.19,5,0,0,0.00
2013-12-11,58.0,46.1,35.8,33.0,25.3,19.0,68,47,25,30.22,30.15,15,1,0,0.00
2013-12-12,61.5,46.3,37.8,38.0,34.5,30.0,86,65,39,30.25,30.15,2,0,0,0.00
2013-12-13,59.3,46.5,39.3,45.0,38.8,35.0,95,76,51,30.33,30.21,1,0,0,0.00
2013-12-14,63.2,49.2,38.3,39.0,32.8,27.0,90,58,29,30.37,30.30,5,0,0,0.00
2013-12-15,66.9,51.3,39.9,41.0,32.7,27.0,87,53,27,30.35,30.22,5,0,0,0.00
2013-12-16,70.8,55.9,47.1,40.0,33.8,27.0,62,45,21,30.22,30.10,3,0,0,0.00
2013-12-17,67.9,53.0,44.9,43.0,38.2,33.0,71,59,38,30.16,30.01,2,0,0,0.00
2013-12-18,57.8,49.2,42.6,47.0,42.2,36.0,92,77,59,30.02,29.75,4,0,0,0.00
2013-12-19,63.9,51.3,43.5,45.0,29.3,12.0,93,49,23,29.93,29.71,4,0,0,0.00
2013-12-20,62.1,48.5,39.1,37.0,23.4,12.0,59,40,18,30.00,29.91,2,0,0,0.00
2013-12-21,64.5,50.7,42.8,47.0,42.1,30.0,92,74,45,30.07,29.95,2,0,0,0.00
2013-12-22,67.9,52.6,42.2,45.0,38.7,32.0,95,65,28,30.27,30.07,9,0,0,0.00
2013-12-23,66.4,52.5,42.3,41.0,38.3,36.0,84,61,34,30.37,30.26,4,0,0,0.00
2013-12-24,67.9,52.4,43.9,44.0,40.0,37.0,81,65,35,30.32,30.18,1,0,0,0.00
2013-12-25,68.1,55.3,44.3,39.0,36.3,29.0,71,51,29,30.26,30.17,7,0,0,0.00
2013-12-26,69.8,52.1,40.9,43.0,36.7,32.0,86,59,25,30.23,30.14,2,0,0,0.00
2013-12-27,62.3,49.9,41.9,43.0,37.1,33.0,79,62,46,30.21,30.11,2,0,0,0.00
2013-12-28,64.8,48.4,37.8,40.0,35.3,29.0,88,63,35,30.13,30.02,2,0,0,0.00
2013-12-29,67.1,55.5,43.8,30.0,20.7,14.0,57,28,15,30.16,30.07,10,2,0,0.00
2013-12-30,64.5,50.1,41.6,44.0,36.8,29.0,91,62,40,30.24,30.15,2,0,0,0.00
2013-12-31,62.9,48.4,40.9,45.0,39.3,33.0,93,73,34,30.26,30.14,2,0,0,0.00
2014-1-1,62.9,49.0,39.5,43.0,37.0,32.0,84,65,46,30.20,30.11,2,0,0,0.00
2014-1-2,70.1,52.6,41.3,38.0,35.0,32.0,76,55,25,30.16,30.04,3,0,0,0.00